Overview Statistics Trail Chart Weather Telemetry Raw packets
 

This is the latest recevied weather packets stored in our database for station/object IZ2WYA-13. If no packets are shown the sender has not sent any weather packets the latest 10 day(s).

<< 5 6 7 8 9 10 11 >>
Time Temp. Humidity Pressure Rain* Wind** Luminosity Snow
1788266781 26.67° C 49% 1019.6 hPa - - - -
1788264980 26.11° C 47% 1020 hPa - - - -
1788263179 26.11° C 45% 1020.2 hPa - - - -
1788261378 26.11° C 44% 1020.4 hPa - - - -
1788259576 25.56° C 43% 1020.5 hPa - - - -
1788257780 25.56° C 45% 1020.7 hPa - - - -
1788255974 25° C 47% 1021 hPa - - - -
1788254172 24.44° C 48% 1021.2 hPa - - - -
1788252371 23.89° C 50% 1021.5 hPa - - - -
1788250570 23.89° C 51% 1021.6 hPa - - - -
1788248769 23.33° C 53% 1021.6 hPa - - - -
1788246967 22.78° C 53% 1021.6 hPa - - - -
1788245166 22.78° C 52% 1021.7 hPa - - - -
1788243364 22.78° C 52% 1021.4 hPa - - - -
1788241563 22.22° C 52% 1021.2 hPa - - - -
1788239762 22.22° C 52% 1021 hPa - - - -
1788237961 22.78° C 52% 1020.5 hPa - - - -
1788236160 22.78° C 50% 1020.2 hPa - - - -
1788234358 22.78° C 51% 1020.1 hPa - - - -
1788232557 23.33° C 53% 1020 hPa - - - -
1788230756 23.33° C 50% 1020.1 hPa - - - -
1788228955 23.89° C 47% 1020 hPa - - - -
1788227153 24.44° C 46% 1020 hPa - - - -
1788225352 24.44° C 46% 1019.8 hPa - - - -
1788223550 24.44° C 45% 1019.6 hPa - - - -

* Rain since midnight (hover to see other rain measurements)
** Current wind speed in m/s (hover to see current wind gust speed)